TimeEDT,TemperatureF,Dew PointF,Humidity,Sea Level PressureIn,VisibilityMPH,Wind Direction,Wind SpeedMPH,Gust SpeedMPH,PrecipitationIn,Events,Conditions,WindDirDegrees,DateUTC
12:58 AM,74.3,72.0,92,29.76,10.0,South,3.5,-,N/A,,Partly Cloudy,190,2013-06-14 04:58:00
1:58 AM,74.5,70.7,88,29.77,10.0,West,4.6,-,N/A,,Scattered Clouds,270,2013-06-14 05:58:00
2:58 AM,74.7,70.0,85,29.77,10.0,NW,5.8,-,N/A,,Scattered Clouds,310,2013-06-14 06:58:00
3:58 AM,74.3,66.4,76,29.77,10.0,North,10.4,-,N/A,,Clear,350,2013-06-14 07:58:00
4:58 AM,72.0,62.8,73,29.79,10.0,North,8.1,-,N/A,,Clear,350,2013-06-14 08:58:00
5:58 AM,70.0,61.7,75,29.81,10.0,North,8.1,-,N/A,,Clear,10,2013-06-14 09:58:00
6:58 AM,69.1,61.2,76,29.84,10.0,North,6.9,-,N/A,,Clear,350,2013-06-14 10:58:00
7:58 AM,72.0,57.9,61,29.85,10.0,North,11.5,-,N/A,,Clear,360,2013-06-14 11:58:00
8:58 AM,75.2,56.8,53,29.87,10.0,North,9.2,-,N/A,,Clear,360,2013-06-14 12:58:00
9:58 AM,77.2,55.8,47,29.88,10.0,NNW,11.5,-,N/A,,Clear,340,2013-06-14 13:58:00
10:58 AM,79.3,54.7,42,29.89,10.0,North,11.5,-,N/A,,Clear,350,2013-06-14 14:58:00
11:58 AM,81.1,53.2,38,29.89,10.0,North,12.7,-,N/A,,Clear,10,2013-06-14 15:58:00
12:58 PM,82.2,53.1,36,29.88,10.0,North,10.4,-,N/A,,Clear,350,2013-06-14 16:58:00
1:58 PM,83.5,51.8,33,29.88,10.0,North,11.5,-,N/A,,Scattered Clouds,10,2013-06-14 17:58:00
2:58 PM,83.8,51.6,33,29.88,10.0,North,16.1,20.7,N/A,,Partly Cloudy,360,2013-06-14 18:58:00
3:01 PM,84.2,51.8,33,29.89,10.0,NNW,12.7,20.7,N/A,,Partly Cloudy,340,2013-06-14 19:01:00
3:58 PM,84.9,50.9,31,29.89,10.0,NNE,13.8,-,N/A,,Clear,30,2013-06-14 19:58:00
4:58 PM,84.2,50.7,31,29.90,10.0,North,10.4,-,N/A,,Partly Cloudy,360,2013-06-14 20:58:00
5:58 PM,84.6,50.2,30,29.90,10.0,North,10.4,-,N/A,,Clear,10,2013-06-14 21:58:00
6:58 PM,83.1,49.8,31,29.91,10.0,North,12.7,-,N/A,,Clear,10,2013-06-14 22:58:00
7:58 PM,79.9,51.1,37,29.94,10.0,NNE,8.1,-,N/A,,Clear,30,2013-06-14 23:58:00
8:58 PM,71.1,56.5,60,29.95,10.0,NNE,5.8,-,N/A,,Clear,30,2013-06-15 00:58:00
9:58 PM,70.5,56.7,61,29.97,10.0,NE,5.8,-,N/A,,Clear,40,2013-06-15 01:58:00
10:58 PM,68.4,57.2,67,29.99,10.0,NE,3.5,-,N/A,,Clear,50,2013-06-15 02:58:00
11:58 PM,68.5,56.1,64,30.01,10.0,Calm,Calm,-,N/A,,Clear,0,2013-06-15 03:58:00